Weather History for Ocean City, MD

Change the Weather History Date:

Friday, February 22, 2013

  Actual Average (KSBY) Record (KSBY)
Temperature  
Mean Temperature 34 °F 39 °F  
Max Temperature 39 °F 49 °F 70 °F (1997)
Min Temperature 30 °F 29 °F 7 °F (1968)
Degree Days  
Heating Degree Days 30 26  
Month to date heating degree days 613  
Since 1 July heating degree days 3154  
Cooling Degree Days 0 0  
Month to date cooling degree days 0  
Year to date cooling degree days 0  
Moisture  
Dew Point 29 °F    
Average Humidity 80    
Maximum Humidity 100    
Minimum Humidity 59    
Precipitation  
Precipitation 0.08 in 0.12 in 0.95 in (1983)
Month to date precipitation 2.62  
Year to date precipitation 6.23  
Snow  
Snow 0.00 in 0.10 in 6.00 in (1948)
Month to date snowfall 2.8  
Since 1 July snowfall 7.8  
Snow Depth -    
Sea Level Pressure  
Sea Level Pressure 30.32 in    
Wind  
Wind Speed 7 mph (NE)    
Max Wind Speed 12 mph    
Max Gust Speed 122 mph    
Visibility 10 miles    
Events Rain    
T = Trace of Precipitation, MM = Missing Value Source: NWS Daily Summary

Daily Weather History Graph

Daily Weather History Graph

Search for Another Location

Airport:

Trip Planner

Search our weather history database for the weather conditions in past years. The results will help you decide how hot, cold, wet, or windy it might be!

Date:

Astronomy

Feb. 22, 2013 Rise Set
Actual Time 6:41 AM EST 5:46 PM EST
Civil Twilight 6:15 AM EST 6:13 PM EST
Nautical Twilight 5:44 AM EST 6:44 PM EST
Astronomical Twilight 5:13 AM EST 7:14 PM EST
Moon 2:57 PM EST (2/22) 4:23 AM EST (2/22)
Length of Visible Light 11h 58m
Length of Day
11h 04m
Waxing Gibbous, 90% of the Moon is Illuminated
Feb 22
Waxing Gibbous
Feb 25
Full
Mar 4
Last Quarter
Mar 11
New
Mar 19
First Quarter

Hourly Weather History & Observations

Time (EST) Temp. Windchill Dew Point Humidity Pressure Visibility Wind Dir Wind Speed Gust Speed Precip Events Conditions
1:53 AM 30.0 °F 23.2 °F 19.0 °F 64% 30.28 in 10.0 mi North 6.9 mph - N/A   Clear
2:53 AM 32.0 °F 23.0 °F 19.0 °F 59% 30.29 in 10.0 mi NNE 11.5 mph - N/A   Clear
3:53 AM 30.9 °F 22.2 °F 19.0 °F 61% 30.32 in 10.0 mi NNE 10.4 mph 18.4 mph N/A   Clear
4:53 AM 30.0 °F 22.4 °F 19.0 °F 64% 30.36 in 10.0 mi North 8.1 mph - N/A   Clear
5:53 AM 30.0 °F 24.1 °F 19.0 °F 64% 30.37 in 10.0 mi North 5.8 mph - N/A   Clear
6:53 AM 30.0 °F 25.2 °F 19.9 °F 66% 30.38 in 10.0 mi NNE 4.6 mph - N/A   Clear
7:53 AM 30.9 °F 23.5 °F 23.0 °F 72% 30.38 in 10.0 mi NE 8.1 mph - N/A   Clear
8:31 AM 33.8 °F 26.4 °F 24.8 °F 70% 30.39 in 10.0 mi NE 9.2 mph - N/A   Mostly Cloudy
8:53 AM 34.0 °F 28.0 °F 25.0 °F 70% 30.40 in 10.0 mi NNE 6.9 mph - N/A   Overcast
9:53 AM 35.1 °F 29.3 °F 27.0 °F 72% 30.38 in 10.0 mi NE 6.9 mph - N/A   Overcast
10:53 AM 35.1 °F 27.9 °F 28.9 °F 78% 30.35 in 10.0 mi ENE 9.2 mph - N/A   Overcast
11:01 AM 35.6 °F 28.0 °F 28.4 °F 75% 30.35 in 10.0 mi ENE 10.4 mph - N/A   Mostly Cloudy
11:22 AM 35.6 °F 29.9 °F 30.2 °F 81% 30.34 in 10.0 mi ENE 6.9 mph - N/A   Overcast
11:53 AM 36.0 °F 30.3 °F 30.0 °F 79% 30.35 in 10.0 mi ENE 6.9 mph - N/A   Overcast
12:24 PM 37.4 °F 32.1 °F 30.2 °F 75% 30.33 in 10.0 mi ENE 6.9 mph - N/A   Overcast
12:53 PM 37.0 °F 31.6 °F 30.9 °F 79% 30.32 in 10.0 mi ENE 6.9 mph - N/A   Overcast
1:53 PM 37.9 °F 33.5 °F 32.0 °F 79% 30.32 in 10.0 mi Variable 5.8 mph - N/A   Overcast
2:53 PM 39.0 °F - 32.0 °F 76% 30.31 in 10.0 mi Calm Calm - N/A   Overcast
3:53 PM 37.9 °F 33.5 °F 33.1 °F 83% 30.31 in 10.0 mi NNE 5.8 mph - 0.00 in   Overcast
4:53 PM 37.0 °F 32.4 °F 33.1 °F 86% 30.29 in 10.0 mi NNE 5.8 mph - N/A   Overcast
5:53 PM 37.0 °F 33.3 °F 34.0 °F 89% 30.29 in 10.0 mi NNE 4.6 mph - N/A   Overcast
6:53 PM 36.0 °F - 36.0 °F 100% 30.30 in 7.0 mi Calm Calm - 0.02 in Rain Light Rain
7:53 PM 37.0 °F 31.6 °F 36.0 °F 96% 30.29 in 7.0 mi ENE 6.9 mph - 0.04 in Rain Light Rain
8:53 PM 37.9 °F 33.5 °F 37.0 °F 97% 30.27 in 10.0 mi ENE 5.8 mph - 0.00 in   Overcast
9:53 PM 39.0 °F 34.8 °F 37.9 °F 96% 30.25 in 10.0 mi East 5.8 mph - 0.01 in Rain Light Rain
10:53 PM 39.0 °F 34.8 °F 39.0 °F 100% 30.24 in 10.0 mi ENE 5.8 mph - 0.00 in   Overcast
11:13 PM 39.2 °F 35.0 °F 39.2 °F 100% 30.24 in 10.0 mi ENE 5.8 mph 170.3 mph N/A   Squalls
11:53 PM 39.9 °F 35.8 °F 39.9 °F 100% 30.22 in 10.0 mi East 5.8 mph 122.0 mph 0.01 in   Overcast